Weather History for Dubuque, IA

Change the Weather History Date:

Tuesday, February 12, 2013

  Actual Average Record
Temperature  
Mean Temperature 28 °F 23 °F  
Max Temperature 34 °F 31 °F 67 °F (1882)
Min Temperature 21 °F 15 °F -20 °F (1899)
Degree Days  
Heating Degree Days 37 42  
Month to date heating degree days 524 525  
Since 1 July heating degree days 4573 4762  
Cooling Degree Days 0 0  
Month to date cooling degree days 0 0  
Year to date cooling degree days 0 0  
Moisture  
Dew Point 21 °F    
Average Humidity 79    
Maximum Humidity 92    
Minimum Humidity 66    
Precipitation  
Precipitation 0.00 in 0.05 in 0.86 in (1894)
Month to date precipitation 0.84 0.54  
Year to date precipitation 2.56 1.71  
Snow  
Snow 0.00 in 0.40 in - ()
Month to date snowfall 4.2 4.3  
Since 1 July snowfall 30.0 28.9  
Snow Depth 1.00 in    
Sea Level Pressure  
Sea Level Pressure 30.03 in    
Wind  
Wind Speed 10 mph (WSW)    
Max Wind Speed 21 mph    
Max Gust Speed 25 mph    
Visibility 10 miles    
Events      
T = Trace of Precipitation, MM = Missing Value Source: NWS Daily Summary

Daily Weather History Graph

Daily Weather History Graph

Search for Another Location

Airport:

Trip Planner

Search our weather history database for the weather conditions in past years. The results will help you decide how hot, cold, wet, or windy it might be!

Date:

Astronomy

Feb. 12, 2013 Rise Set
Actual Time 7:03 AM CST 5:31 PM CST
Civil Twilight 6:34 AM CST 6:00 PM CST
Nautical Twilight 6:01 AM CST 6:33 PM CST
Astronomical Twilight 5:28 AM CST 7:06 PM CST
Moon 7:56 AM CST (2/12) 8:37 PM CST (2/12)
Length of Visible Light 11h 26m
Length of Day
10h 28m
Waxing Crescent, 7% of the Moon is Illuminated
Feb 12
Waxing Crescent
Feb 17
First Quarter
Feb 25
Full
Mar 4
Last Quarter
Mar 11
New

Hourly Weather History & Observations

Time (CST) Temp. Windchill Dew Point Humidity Pressure Visibility Wind Dir Wind Speed Gust Speed Precip Events Conditions
12:53 AM 21.9 °F 7.8 °F 17.1 °F 82% 30.11 in 10.0 mi WNW 17.3 mph 24.2 mph N/A   Overcast
1:53 AM 21.9 °F 8.7 °F 18.0 °F 85% 30.12 in 10.0 mi WNW 15.0 mph 21.9 mph N/A   Overcast
2:53 AM 21.9 °F 8.2 °F 18.0 °F 85% 30.12 in 10.0 mi West 16.1 mph - N/A   Overcast
3:53 AM 21.9 °F 11.7 °F 18.0 °F 85% 30.12 in 10.0 mi West 9.2 mph - N/A   Overcast
4:53 AM 21.9 °F 10.4 °F 18.0 °F 85% 30.12 in 10.0 mi WNW 11.5 mph - N/A   Overcast
5:03 AM 21.2 °F 7.8 °F 17.6 °F 86% 30.07 in 10.0 mi WNW 15.0 mph - N/A   Overcast
5:53 AM 21.2 °F 9.5 °F 17.6 °F 86% 30.05 in 10.0 mi WNW 11.5 mph 19.6 mph N/A   Overcast
6:53 AM 21.0 °F 9.9 °F 17.1 °F 85% 30.11 in 10.0 mi West 10.4 mph - N/A   Overcast
7:53 AM 21.9 °F 9.2 °F 18.0 °F 85% 30.13 in 10.0 mi WNW 13.8 mph - N/A   Overcast
8:53 AM 23.0 °F 17.0 °F 18.0 °F 81% 30.12 in 10.0 mi NW 4.6 mph - N/A   Overcast
9:53 AM 24.1 °F 18.2 °F 18.0 °F 77% 30.10 in 10.0 mi NW 4.6 mph - N/A   Overcast
10:53 AM 26.1 °F 16.8 °F 19.9 °F 78% 30.12 in 10.0 mi West 9.2 mph - N/A   Overcast
11:53 AM 28.0 °F 19.3 °F 21.0 °F 75% 30.08 in 10.0 mi WSW 9.2 mph - N/A   Mostly Cloudy
12:53 PM 30.0 °F 21.1 °F 23.0 °F 75% 30.05 in 10.0 mi WSW 10.4 mph - N/A   Scattered Clouds
1:53 PM 32.0 °F 23.0 °F 23.0 °F 69% 30.01 in 10.0 mi West 11.5 mph - N/A   Clear
2:53 PM 33.1 °F 24.9 °F 25.0 °F 72% 29.99 in 10.0 mi SW 10.4 mph - N/A   Clear
3:53 PM 34.0 °F 26.0 °F 25.0 °F 70% 29.98 in 10.0 mi SSW 10.4 mph - N/A   Clear
4:53 PM 33.1 °F 24.9 °F 26.1 °F 75% 29.97 in 10.0 mi SSW 10.4 mph - N/A   Clear
5:53 PM 30.9 °F 22.2 °F 25.0 °F 79% 29.96 in 10.0 mi SSW 10.4 mph - N/A   Clear
6:53 PM 28.9 °F 21.1 °F 25.0 °F 85% 29.95 in 10.0 mi SSW 8.1 mph - N/A   Clear
7:53 PM 28.0 °F 19.3 °F 25.0 °F 88% 29.95 in 10.0 mi SSW 9.2 mph - N/A   Clear
8:53 PM 27.0 °F 20.5 °F 24.1 °F 89% 29.94 in 10.0 mi South 5.8 mph - N/A   Clear
9:53 PM 27.0 °F 18.7 °F 24.1 °F 89% 29.91 in 9.0 mi South 8.1 mph - N/A   Clear
10:53 PM 28.0 °F 17.5 °F 25.0 °F 88% 29.90 in 8.0 mi SSW 12.7 mph - N/A   Clear
11:53 PM 26.1 °F 17.6 °F 24.1 °F 92% 29.88 in 7.0 mi SSW 8.1 mph - N/A   Clear